EW8060 Weather Reports


time (UTC)temp
C
wind
direction
speed
KPH
gust
KPH
rain 1hr
cm
rain 24hr
cm
rain mn
cm
humidity
%
barometer
mb
20260510140015 20 163 0.0 0.0 0.00 0.00 0.00 59 1017.4
20260510135015 20 84 0.0 0.0 0.00 0.00 0.00 59 1017.5
20260510134014 20 58 0.0 0.0 0.00 0.00 0.00 60 1017.4
20260510133014 19 100 0.0 0.0 0.00 0.00 0.00 61 1017.5
20260510132014 18 115 0.0 0.0 0.00 0.00 0.00 62 1017.5
20260510131033 18 134 0.0 0.0 0.00 0.00 0.00 64 1017.4
20260510130013 17 89 0.0 0.0 0.00 0.00 0.00 66 1017.3
20260510125013 17 118 0.0 0.0 0.00 0.00 0.00 67 1017.3
20260510124012 16 111 0.0 0.0 0.00 0.00 0.00 69 1017.2
20260510123012 16 121 0.0 0.0 0.00 0.00 0.00 69 1017.2
20260510122013 15 119 0.0 0.0 0.00 0.00 0.00 71 1017.1
20260510121012 15 101 0.0 0.0 0.00 0.00 0.00 72 1017.0
20260510120011 14 84 0.0 0.0 0.00 0.00 0.00 73 1017.0
20260510115011 14 114 0.0 0.0 0.00 0.00 0.00 74 1016.9
20260510114011 13 201 0.0 0.0 0.00 0.00 0.00 76 1016.8
20260510113010 13 80 0.0 0.0 0.00 0.00 0.00 76 1016.8
20260510112010 12 110 0.0 0.0 0.00 0.00 0.00 78 1016.6
20260510111030 12 115 0.0 0.0 0.00 0.00 0.00 79 1016.4
20260510110030 12 117 0.0 0.0 0.00 0.00 0.00 79 1016.1
20260510105009 11 119 0.0 0.0 0.00 0.00 0.00 79 1016.0
20260510104009 11 119 0.0 0.0 0.00 0.00 0.00 80 1015.9
20260510103009 11 119 0.0 0.0 0.00 0.00 0.00 81 1015.7
20260510102009 11 161 0.0 0.0 0.00 0.00 0.00 83 1015.6
20260510101008 11 161 0.0 0.0 0.00 0.00 0.00 81 1015.6
20260510100110 11 161 0.0 0.0 0.00 0.00 0.00 79 1015.4
20260510095008 12 159 0.0 0.0 0.00 0.00 0.00 76 1015.5
20260510094007 13 159 0.0 0.0 0.00 0.00 0.00 73 1015.3
20260510093008 14 159 0.0 0.0 0.00 0.00 0.00 70 1015.1
20260510092007 14 116 0.0 0.0 0.00 0.00 0.00 71 1015.0
20260510091007 13 165 0.0 0.0 0.00 0.00 0.00 72 1014.9
20260510090007 13 184 0.0 0.0 0.00 0.00 0.00 73 1014.9
20260510085026 12 165 0.0 0.0 0.00 0.00 0.00 78 1014.9
20260510084006 11 210 0.0 0.0 0.00 0.00 0.00 82 1014.9
20260510083006 11 225 0.0 0.0 0.00 0.00 0.00 79 1015.0
20260510082005 11 217 0.0 0.0 0.00 0.00 0.00 78 1014.9
20260510081025 11 198 0.0 0.0 0.00 0.00 0.00 77 1014.8
20260510080005 11 119 0.0 0.0 0.00 0.00 0.00 79 1014.6
20260510075045 11 119 0.0 0.0 0.00 0.00 0.00 79 1014.4
20260510074005 11 119 0.0 0.0 0.00 0.00 0.00 79 1014.4
20260510073005 11 119 0.0 0.0 0.00 0.00 0.00 77 1014.3
20260510072004 12 119 0.0 0.0 0.00 0.00 0.00 76 1014.4
20260510071004 12 120 0.0 0.0 0.00 0.00 0.00 73 1014.2
20260510070023 12 120 0.0 0.0 0.00 0.00 0.00 73 1014.2
20260510065003 12 121 0.0 0.0 0.00 0.00 0.00 74 1014.2
20260510064003 13 123 0.0 0.0 0.00 0.00 0.00 72 1014.3
20260510063003 13 123 0.0 0.0 0.00 0.00 0.00 71 1014.3
20260510062002 13 131 0.0 0.0 0.00 0.00 0.00 70 1014.4
20260510061002 13 133 0.0 0.0 0.00 0.00 0.00 69 1014.4
20260510060022 14 134 0.0 0.0 0.00 0.00 0.00 67 1014.3
20260510055001 14 114 0.0 0.0 0.00 0.00 0.00 67 1014.4
20260510054001 14 119 0.0 0.0 0.00 0.00 0.00 67 1014.4
20260510053001 14 128 0.0 0.0 0.00 0.00 0.00 67 1014.4
20260510052000 13 282 0.0 0.0 0.00 0.00 0.00 68 1014.3
20260510051000 13 282 0.0 0.0 0.00 0.00 0.00 68 1014.3
20260510050000 14 282 0.0 0.0 0.00 0.00 0.00 67 1014.5
20260510044959 15 282 0.0 0.0 0.00 0.00 0.00 66 1014.4
20260510043959 15 282 0.0 0.0 0.00 0.00 0.00 63 1014.4
20260510042958 15 282 0.0 0.0 0.00 0.00 0.00 62 1014.4
20260510042018 16 284 0.0 0.0 0.00 0.00 0.00 61 1014.4
20260510040958 15 284 0.0 0.0 0.00 0.00 0.00 62 1014.3
20260510035958 15 304 0.0 0.0 0.00 0.00 0.00 63 1014.3
20260510035017 15 304 0.0 0.0 0.00 0.00 0.00 62 1014.3
20260510033957 15 305 0.0 0.0 0.00 0.00 0.00 62 1014.1
20260510032957 15 306 0.0 0.0 0.00 0.00 0.00 62 1014.2
20260510031956 15 315 0.0 0.0 0.00 0.00 0.00 61 1014.1
20260510030956 15 315 0.0 0.0 0.00 0.00 0.00 61 1014.0
20260510025956 16 315 0.0 0.0 0.00 0.00 0.00 60 1013.9
20260510024955 16 315 0.0 0.0 0.00 0.00 0.00 59 1013.9
20260510023955 16 315 0.0 0.0 0.00 0.00 0.00 58 1013.9
20260510023016 17 315 0.0 0.0 0.00 0.00 0.00 56 1013.9
20260510021955 17 111 0.0 0.0 0.00 0.00 0.00 53 1013.5
20260510020954 17 103 0.0 0.0 0.00 0.00 0.00 54 1013.4
20260510020014 17 232 0.0 0.0 0.00 0.00 0.00 55 1013.4
20260510014954 17 232 0.0 0.0 0.00 0.00 0.00 56 1013.2
20260510013953 17 232 0.0 0.0 0.00 0.00 0.00 55 1012.9
20260510012953 17 229 0.0 0.0 0.00 0.00 0.00 55 1012.7
20260510011952 17 229 0.0 0.0 0.00 0.00 0.00 54 1012.5
20260510011012 18 229 0.0 0.0 0.00 0.00 0.00 53 1012.4
20260510005952 18 229 0.0 0.0 0.00 0.00 0.00 50 1012.4
20260510004951 19 83 0.0 0.0 0.00 0.00 0.00 50 1012.1
20260510003951 20 82 0.0 0.0 0.00 0.00 0.00 46 1012.2
20260510003031 20 83 0.0 0.0 0.00 0.00 0.00 45 1012.1
20260510001950 21 204 0.0 0.0 0.00 0.00 0.00 45 1012.0
20260510000951 21 72 0.0 0.0 0.00 0.00 0.00 44 1011.9
20260509235950 22 71 0.0 0.0 0.00 0.00 0.00 43 1011.6
20260509234949 22 132 0.0 0.0 0.00 0.00 0.00 41 1011.5
20260509234009 22 78 0.0 0.0 0.00 0.00 0.00 41 1011.3
20260509232949 23 83 0.0 0.0 0.00 0.00 0.00 40 1011.2
20260509231949 23 90 0.0 0.0 0.00 0.00 0.00 40 1011.2
20260509230948 23 17 0.0 0.0 0.00 0.00 0.00 40 1011.0
20260509225948 22 76 0.0 0.0 0.00 0.00 0.00 41 1010.9
20260509225009 22 67 0.0 0.0 0.00 0.00 0.00 40 1011.0
20260509223947 23 87 0.0 0.0 0.00 0.00 0.00 40 1011.0
20260509222947 22 70 0.0 0.0 0.00 0.00 0.00 41 1010.9
20260509222027 23 107 0.0 0.0 0.00 0.00 0.00 41 1011.0
20260509220947 23 84 0.0 0.0 0.00 0.00 0.00 41 1010.9
20260509215948 23 69 0.0 0.0 0.00 0.00 0.00 41 1010.8
20260509214946 23 92 0.0 0.0 0.00 0.00 0.00 40 1010.8
20260509213945 23 71 0.0 0.0 0.00 0.00 0.00 40 1010.8
20260509212945 23 94 0.0 0.0 0.00 0.00 0.00 39 1010.7
20260509211945 23 120 0.0 0.0 0.00 0.00 0.00 40 1010.6
20260509210945 23 98 0.0 0.0 0.00 0.00 0.00 40 1010.6
20260509205945 23 121 0.0 0.0 0.00 0.00 0.00 39 1010.5
20260509204944 24 59 0.0 0.0 0.00 0.00 0.00 40 1010.4
20260509203944 24 88 0.0 0.0 0.00 0.00 0.00 38 1010.4
20260509202943 24 113 0.0 0.0 0.00 0.00 0.00 38 1010.5
20260509201943 25 115 0.0 0.0 0.00 0.00 0.00 43 1010.4
20260509200943 25 355 0.0 0.0 0.00 0.00 0.00 44 1010.4
20260509195944 23 10 0.0 0.0 0.00 0.00 0.00 47 1010.4
20260509194942 23 5 0.0 0.0 0.00 0.00 0.00 48 1010.5
20260509193942 22 355 0.0 0.0 0.00 0.00 0.00 48 1010.6
20260509192941 23 81 0.0 0.0 0.00 0.00 0.00 46 1010.5
20260509191941 23 350 0.0 0.0 0.00 0.00 0.00 49 1010.7
20260509190941 23 290 0.0 0.0 0.00 0.00 0.00 47 1010.7
20260509185940 23 300 0.0 1.6 0.00 0.00 0.00 49 1010.9
20260509184940 23 326 0.0 0.0 0.00 0.00 0.00 49 1011.0
20260509183940 23 5 0.0 0.0 0.00 0.00 0.00 51 1010.9
20260509182940 22 14 0.0 0.0 0.00 0.00 0.00 52 1011.1
20260509181939 22 328 0.0 0.0 0.00 0.00 0.00 52 1011.2
20260509180939 23 26 0.0 0.0 0.00 0.00 0.00 49 1011.4
20260509175939 22 46 0.0 0.0 0.00 0.00 0.00 51 1011.6
20260509174938 22 11 0.0 0.0 0.00 0.00 0.00 54 1011.6
20260509173938 21 319 0.0 0.0 0.00 0.00 0.00 54 1011.7
20260509172938 21 14 0.0 0.0 0.00 0.00 0.00 56 1011.7
20260509171937 20 306 0.0 0.0 0.00 0.00 0.00 56 1012.0
20260509170937 20 107 0.0 0.0 0.00 0.00 0.00 57 1012.0
20260509165957 20 111 0.0 0.0 0.00 0.00 0.00 57 1012.3
20260509164957 21 273 0.0 0.0 0.00 0.00 0.00 56 1012.3
20260509163936 21 14 0.0 0.0 0.00 0.00 0.00 55 1012.4
20260509162936 21 15 0.0 0.0 0.00 0.00 0.00 54 1012.5
20260509161935 21 47 0.0 0.0 0.00 0.00 0.00 55 1012.5
20260509160935 21 29 0.0 3.2 0.00 0.00 0.00 58 1012.4
20260509155935 21 5 0.0 0.0 0.00 0.00 0.00 58 1012.3
20260509154955 20 305 0.0 0.0 0.00 0.00 0.00 59 1012.3
20260509153955 20 325 0.0 0.0 0.00 0.00 0.00 60 1012.6
20260509152934 20 310 0.0 0.0 0.00 0.00 0.00 60 1013.0
20260509151934 19 350 0.0 0.0 0.00 0.00 0.00 59 1012.9
20260509150954 19 348 0.0 0.0 0.00 0.00 0.00 59 1012.8
20260509145954 18 344 0.0 0.0 0.00 0.00 0.00 59 1012.5
20260509144933 18 292 0.0 0.0 0.00 0.00 0.00 59 1012.9
20260509143933 18 263 0.0 0.0 0.00 0.00 0.00 59 1013.0
20260509142932 18 355 0.0 0.0 0.00 0.00 0.00 61 1013.2
20260509141952 17 331 0.0 0.0 0.00 0.00 0.00 62 1013.2
20260509140932 16 325 0.0 0.0 0.00 0.00 0.00 65 1013.3